TimeART,TemperatureF,Dew PointF,Humidity,Sea Level PressureIn,VisibilityMPH,Wind Direction,Wind SpeedMPH,Gust SpeedMPH,PrecipitationIn,Events,Conditions,WindDirDegrees,DateUTC
12:00 AM,60.8,57.2,88,30.01,6.2,NE,5.8,-,N/A,,Mostly Cloudy,50,2013-09-20 03:00:00
1:00 AM,60.8,57.2,88,29.98,6.2,NE,8.1,-,N/A,,Mostly Cloudy,50,2013-09-20 04:00:00
2:00 AM,60.8,57.2,88,29.98,6.2,NE,6.9,-,N/A,,Mostly Cloudy,50,2013-09-20 05:00:00
3:00 AM,59,58,93,29.91,12,NE,8.1,,,,Scattered Clouds,50,2013-09-20 06:00:00
3:00 AM,60.8,57.2,88,29.95,6.2,NE,8.1,-,N/A,,Mostly Cloudy,50,2013-09-20 06:00:00
4:00 AM,59.0,57.2,94,29.95,6.2,NE,6.9,-,N/A,,Mostly Cloudy,50,2013-09-20 07:00:00
5:00 AM,60.8,60.8,100,29.95,-9999.0,Calm,Calm,-,N/A,,Clear,0,2013-09-20 08:00:00
6:00 AM,62.6,60.8,94,29.95,-9999.0,NE,5.8,-,N/A,,Clear,50,2013-09-20 09:00:00
7:00 AM,62.6,62.6,100,29.95,-9999.0,NE,6.9,-,N/A,,Clear,50,2013-09-20 10:00:00
8:00 AM,66.2,64.4,94,29.95,-9999.0,NE,9.2,-,N/A,,Clear,50,2013-09-20 11:00:00
9:00 AM,72,66,76,29.91,12,NE,10.4,,,,Partly Cloudy,50,2013-09-20 12:00:00
9:00 AM,71.6,66.2,83,29.95,-9999.0,NE,10.4,-,N/A,,Clear,50,2013-09-20 12:00:00
10:00 AM,77.0,68.0,74,29.95,-9999.0,NE,8.1,-,N/A,,Clear,50,2013-09-20 13:00:00
11:00 AM,82.4,69.8,66,29.92,-9999.0,NNE,15.0,-,N/A,,Clear,20,2013-09-20 14:00:00
12:00 PM,84.2,69.8,62,29.89,6.2,North,13.8,-,N/A,,Scattered Clouds,360,2013-09-20 15:00:00
1:00 PM,84.2,71.6,66,29.86,6.2,NNE,13.8,-,N/A,,Mostly Cloudy,20,2013-09-20 16:00:00
2:00 PM,89.6,73.4,59,29.80,6.2,NNE,12.7,-,N/A,,Mostly Cloudy,20,2013-09-20 17:00:00
3:00 PM,91,73,47,29.68,12,NNE,12.7,,,,Partly Cloudy,20,2013-09-20 18:00:00
3:00 PM,91.4,73.4,55,29.74,6.2,NNE,12.7,-,N/A,,Mostly Cloudy,20,2013-09-20 18:00:00
4:00 PM,89.6,73.4,59,29.71,6.2,North,8.1,-,N/A,,Scattered Clouds,360,2013-09-20 19:00:00
4:39 PM,89.6,73.4,59,29.71,6.2,NE,16.1,-,N/A,Thunderstorm,Thunderstorm,50,2013-09-20 19:39:00
5:00 PM,84.2,73.4,70,29.71,6.2,NNE,8.1,-,N/A,Thunderstorm,Thunderstorm,20,2013-09-20 20:00:00
6:00 PM,78.8,77.0,94,29.71,5.0,NE,5.8,-,N/A,,Partly Cloudy,50,2013-09-20 21:00:00
6:25 PM,78.8,77.0,94,29.71,6.2,NE,6.9,-,N/A,,Scattered Clouds,50,2013-09-20 21:25:00
7:00 PM,77.0,75.2,94,29.71,6.2,NE,5.8,-,N/A,,Partly Cloudy,50,2013-09-20 22:00:00
8:00 PM,75.2,73.4,94,29.71,-9999.0,NE,6.9,-,N/A,,Clear,50,2013-09-20 23:00:00
9:00 PM,75.2,73.4,94,29.74,-9999.0,NE,5.8,-,N/A,,Clear,50,2013-09-21 00:00:00
10:00 PM,75.2,71.6,89,29.74,-9999.0,SSW,4.6,-,N/A,,Clear,200,2013-09-21 01:00:00
11:00 PM,73.4,71.6,94,29.74,6.2,South,6.9,-,N/A,Thunderstorm,Thunderstorm,180,2013-09-21 02:00:00